Content
SEND FEEDBACK

Daily
Averages
Monthly
Summary
United States of America

TAMUNING, GUAM


Home > North America > United States > Guam
Elevation: 250 feet     Latitude: 13 29N     Longitude: 144 47E

WEATHER
 
SELECT A DAY
Number of Records: 341,794;   Date Range: 1/1/95 - 7/23/14
 
SHARE

PRINT THIS DATA

[ ← Previous Day ]
WEATHER ALMANAC - MARCH 13, 2014
[ Next Day → ]
[ °C ]   °F
Weather ElementAverageHighLow
Temperature78.8 °F82.4 °F (1:03 pm)75.2 °F (8:18 am)
Dewpoint72.3 °F75.2 °F (1:48 pm)68 °F (2:28 am)
Humidity80.5 %89 % (8:18 am)74 % (2:28 am)
Barometer29.95 in30.02 in (8:47 am)29.88 in (3:58 pm)
Wind Speed19.8 mph24.2 mph (9:58 am)
Wind Gust31.1 mph (5:28 am)
Weather ElementAverage
Visibility10 mi
Wind DirectionENE (69.3 °)

Weather ElementTotal
Precipitation---
Cooling Degree Days13.8 (Base 65)
Growing Degree Days28.8 (Base 50)
Averaged from 100 records on March 13, 2014
WEATHER CONDITIONS BREAKOUT
WIND DIRECTION BREAKOUT
WEATHER BY HOUR - MARCH 13, 2014
[ °C ]   °F
Local TimeTemperatureDewpointHumidityBarometerVisibilityWind DirectionWind SpeedGust SpeedPrecipitationEventsConditions
1:03 AM77.0 °F69.8 °F78 %29.99 in10.0 miENE (60°)23.0 mph28.8 mphMostly Cloudy
1:08 AM77.0 °F69.8 °F78 %29.99 in10.0 miENE (70°)20.7 mph28.8 mphScattered Clouds
1:58 AM76.5 °F68.4 °F76 %29.94 in10.0 miENE (60°)18.4 mph27.6 mphPartly Cloudy
2:28 AM77.0 °F68.0 °F74 %29.97 in10.0 miENE (60°)20.7 mphMostly Cloudy
2:33 AM77.0 °F69.8 °F78 %29.96 in10.0 miENE (60°)19.6 mph25.3 mphMostly Cloudy
2:58 AM76.8 °F70.0 °F79 %29.92 in10.0 miENE (60°)18.4 mphMostly Cloudy
3:13 AM77.0 °F69.8 °F78 %29.95 in10.0 miENE (60°)23.0 mph27.6 mphMostly Cloudy
3:18 AM77.0 °F69.8 °F78 %29.95 in10.0 miENE (60°)18.4 mph27.6 mphMostly Cloudy
3:28 AM77.0 °F69.8 °F78 %29.95 in10.0 miENE (60°)17.3 mph27.6 mphMostly Cloudy
3:33 AM77.0 °F69.8 °F78 %29.95 in10.0 miENE (60°)18.4 mphMostly Cloudy
3:43 AM77.0 °F71.6 °F83 %29.94 in10.0 miENE (60°)19.6 mph26.5 mphMostly Cloudy
3:48 AM77.0 °F69.8 °F78 %29.94 in10.0 miENE (60°)20.7 mph26.5 mphScattered Clouds
3:58 AM76.6 °F70.7 °F82 %29.91 in10.0 miENE (60°)20.7 mphScattered Clouds
4:18 AM77.0 °F69.8 °F78 %29.94 in10.0 miENE (60°)20.7 mphMostly Cloudy
4:28 AM77.0 °F69.8 °F78 %29.94 in10.0 miNE (50°)21.9 mphScattered Clouds
4:53 AM77.0 °F69.8 °F78 %29.94 in10.0 miNE (50°)21.9 mph27.6 mphMostly Cloudy
4:58 AM76.8 °F70.2 °F80 %29.91 in10.0 miENE (60°)21.9 mph27.6 mphMostly Cloudy
5:18 AM77.0 °F69.8 °F78 %29.95 in10.0 miNE (50°)20.7 mph28.8 mphScattered Clouds
5:28 AM77.0 °F69.8 °F78 %29.95 in10.0 miENE (60°)23.0 mph31.1 mphMostly Cloudy
5:33 AM77.0 °F71.6 °F83 %29.95 in10.0 miNE (50°)23.0 mph31.1 mphScattered Clouds
5:38 AM77.0 °F69.8 °F78 %29.95 in10.0 miENE (60°)19.6 mph31.1 mphMostly Cloudy
5:43 AM77.0 °F69.8 °F78 %29.95 in10.0 miNE (50°)20.7 mphScattered Clouds
5:58 AM76.6 °F70.2 °F80 %29.94 in10.0 miENE (60°)21.9 mph29.9 mphMostly Cloudy
6:13 AM77.0 °F69.8 °F78 %29.96 in10.0 miNE (50°)23.0 mph28.8 mphMostly Cloudy
6:48 AM77.0 °F69.8 °F78 %29.98 in10.0 miENE (60°)20.7 mph27.6 mphMostly Cloudy
6:53 AM77.0 °F69.8 °F78 %29.98 in10.0 miENE (60°)19.6 mph27.6 mphMostly Cloudy
6:58 AM76.6 °F70.7 °F82 %29.96 in10.0 miENE (60°)20.7 mphMostly Cloudy
7:43 AM77.0 °F71.6 °F83 %30.00 in10.0 miENE (60°)23.0 mphMostly Cloudy
7:48 AM77.0 °F69.8 °F78 %30.00 in10.0 miENE (60°)20.7 mphMostly Cloudy
7:53 AM77.0 °F71.6 °F83 %30.00 in10.0 miENE (60°)19.6 mphMostly Cloudy
7:58 AM77.2 °F71.2 °F82 %29.97 in10.0 miENE (60°)19.6 mphMostly Cloudy
7:59 AM77.0 °F71.6 °F83 %30.00 in10.0 miENE (60°)18.4 mphLight Drizzle
8:18 AM75.2 °F71.6 °F89 %30.01 in9.0 miENE (60°)17.3 mphOvercast
8:21 AM75.2 °F71.6 °F89 %30.01 in9.0 miENE (70°)15.0 mphRainLight Rain
8:32 AM77.0 °F73.4 °F89 %30.01 in10.0 miENE (60°)20.7 mph25.3 mphOvercast
8:47 AM77.0 °F71.6 °F83 %30.02 in10.0 miENE (60°)17.3 mph27.6 mphMostly Cloudy
8:52 AM77.0 °F73.4 °F89 %30.02 in10.0 miENE (60°)19.6 mph27.6 mphMostly Cloudy
8:58 AM77.9 °F72.9 °F84 %29.99 in10.0 miENE (60°)18.4 mph0.00 inMostly Cloudy
9:23 AM78.8 °F73.4 °F83 %30.02 in10.0 miENE (70°)20.7 mphMostly Cloudy
9:53 AM80.6 °F73.4 °F79 %30.02 in10.0 miENE (70°)23.0 mphMostly Cloudy
9:58 AM79.9 °F73.0 °F80 %29.99 in10.0 miENE (70°)24.2 mphMostly Cloudy
10:08 AM80.6 °F73.4 °F79 %30.02 in10.0 miENE (60°)20.7 mph27.6 mphMostly Cloudy
10:38 AM80.6 °F73.4 °F79 %30.01 in10.0 miENE (70°)18.4 mph26.5 mphScattered Clouds
10:58 AM80.6 °F73.9 °F80 %29.99 in10.0 miENE (70°)17.3 mph23.0 mphMostly Cloudy
11:03 AM80.6 °F73.4 °F79 %30.01 in10.0 miEast (80°)18.4 mph26.5 mphScattered Clouds
11:13 AM80.6 °F73.4 °F79 %30.00 in10.0 miENE (70°)20.7 mph24.2 mphMostly Cloudy
11:18 AM80.6 °F73.4 °F79 %29.99 in10.0 miENE (70°)24.2 mph26.5 mphMostly Cloudy
11:58 AM81.9 °F74.5 °F78 %29.96 in10.0 miEast (80°)18.4 mph26.5 mphMostly Cloudy
12:58 PM81.3 °F74.1 °F79 %29.94 in10.0 miENE (60°)19.6 mphMostly Cloudy
1:03 PM82.4 °F73.4 °F74 %29.95 in10.0 miENE (70°)18.4 mphScattered Clouds
1:23 PM82.4 °F73.4 °F74 %29.95 in10.0 miENE (70°)18.4 mph29.9 mphMostly Cloudy
1:33 PM82.4 °F73.4 °F74 %29.94 in10.0 miENE (70°)18.4 mphMostly Cloudy
1:43 PM82.4 °F73.4 °F74 %29.94 in10.0 miENE (70°)19.6 mph26.5 mphMostly Cloudy
1:48 PM82.4 °F75.2 °F79 %29.94 in10.0 miENE (70°)20.7 mph26.5 mphMostly Cloudy
1:58 PM82.4 °F73.4 °F74 %29.91 in10.0 miEast (80°)18.4 mph26.5 mphMostly Cloudy
2:48 PM82.4 °F73.4 °F74 %29.92 in10.0 miEast (80°)20.7 mph26.5 mphMostly Cloudy
2:53 PM82.4 °F73.4 °F74 %29.92 in10.0 miENE (70°)18.4 mph26.5 mphScattered Clouds
2:58 PM82.2 °F73.6 °F75 %29.89 in10.0 miENE (70°)20.7 mphPartly Cloudy
3:43 PM82.4 °F73.4 °F74 %29.91 in10.0 miENE (70°)19.6 mph27.6 mphMostly Cloudy
3:48 PM80.6 °F73.4 °F79 %29.91 in10.0 miENE (70°)20.7 mph27.6 mphScattered Clouds
3:58 PM81.0 °F73.2 °F77 %29.88 in10.0 miENE (70°)19.6 mph26.5 mphScattered Clouds
4:18 PM80.6 °F73.4 °F79 %29.91 in10.0 miENE (70°)21.9 mphMostly Cloudy
4:23 PM80.6 °F73.4 °F79 %29.91 in10.0 miENE (70°)19.6 mphMostly Cloudy
4:28 PM80.6 °F73.4 °F79 %29.91 in10.0 miENE (70°)21.9 mphScattered Clouds
4:33 PM80.6 °F73.4 °F79 %29.91 in10.0 miENE (70°)19.6 mph28.8 mphMostly Cloudy
4:43 PM80.6 °F73.4 °F79 %29.91 in10.0 miENE (70°)21.9 mph26.5 mphMostly Cloudy
4:58 PM79.9 °F73.0 °F80 %29.88 in10.0 miEast (80°)19.6 mph25.3 mphScattered Clouds
5:03 PM80.6 °F73.4 °F79 %29.91 in10.0 miEast (80°)17.3 mph25.3 mphMostly Cloudy
5:13 PM80.6 °F73.4 °F79 %29.91 in10.0 miEast (80°)21.9 mph26.5 mphMostly Cloudy
5:23 PM78.8 °F73.4 °F83 %29.91 in10.0 miEast (80°)18.4 mph26.5 mphScattered Clouds
5:28 PM78.8 °F73.4 °F83 %29.91 in10.0 miENE (70°)18.4 mphMostly Cloudy
5:33 PM78.8 °F73.4 °F83 %29.91 in10.0 miEast (80°)19.6 mphMostly Cloudy
5:48 PM78.8 °F73.4 °F83 %29.91 in10.0 miEast (80°)20.7 mphScattered Clouds
5:58 PM78.6 °F73.2 °F83 %29.88 in10.0 miENE (70°)17.3 mph24.2 mphScattered Clouds
6:08 PM78.8 °F73.4 °F83 %29.91 in10.0 miEast (80°)21.9 mphMostly Cloudy
6:13 PM78.8 °F73.4 °F83 %29.91 in10.0 miENE (70°)20.7 mphMostly Cloudy
6:28 PM78.8 °F73.4 °F83 %29.92 in10.0 miENE (70°)20.7 mph25.3 mphMostly Cloudy
6:58 PM78.3 °F73.6 °F85 %29.91 in10.0 miENE (70°)19.6 mph25.3 mphMostly Cloudy
7:08 PM78.8 °F73.4 °F83 %29.93 in10.0 miEast (80°)19.6 mph24.2 mphMostly Cloudy
7:13 PM78.8 °F73.4 °F83 %29.93 in10.0 miEast (80°)16.1 mph25.3 mphMostly Cloudy
7:18 PM78.8 °F73.4 °F83 %29.93 in10.0 miEast (80°)17.3 mph25.3 mphScattered Clouds
7:23 PM78.8 °F73.4 °F83 %29.93 in10.0 miEast (80°)18.4 mph23.0 mphMostly Cloudy
7:38 PM78.8 °F73.4 °F83 %29.93 in10.0 miEast (80°)17.3 mph23.0 mphMostly Cloudy
7:43 PM78.8 °F73.4 °F83 %29.94 in10.0 miEast (80°)17.3 mph23.0 mphMostly Cloudy
7:48 PM78.8 °F73.4 °F83 %29.94 in10.0 miEast (80°)15.0 mph26.5 mphScattered Clouds
7:58 PM78.8 °F73.4 °F83 %29.91 in10.0 miEast (80°)20.7 mphMostly Cloudy
8:03 PM77.0 °F73.4 °F89 %29.94 in10.0 miEast (80°)18.4 mphScattered Clouds
8:13 PM78.8 °F73.4 °F83 %29.94 in10.0 miEast (80°)18.4 mph26.5 mphMostly Cloudy
8:58 PM78.4 °F73.0 °F83 %29.94 in10.0 miEast (80°)18.4 mph24.2 mphMostly Cloudy
9:18 PM78.8 °F73.4 °F83 %29.97 in10.0 miEast (80°)19.6 mph24.2 mphScattered Clouds
9:28 PM78.8 °F73.4 °F83 %29.97 in10.0 miEast (90°)23.0 mph26.5 mphMostly Cloudy
9:33 PM78.8 °F73.4 °F83 %29.97 in10.0 miEast (80°)21.9 mph26.5 mphScattered Clouds
9:58 PM78.3 °F73.0 °F84 %29.96 in10.0 miEast (90°)18.4 mph26.5 mphPartly Cloudy
10:28 PM78.8 °F73.4 °F83 %29.98 in10.0 miEast (90°)18.4 mphMostly Cloudy
10:38 PM78.8 °F73.4 °F83 %29.98 in10.0 miEast (80°)21.9 mph27.6 mphMostly Cloudy
10:43 PM78.8 °F73.4 °F83 %29.98 in10.0 miEast (80°)19.6 mph27.6 mphMostly Cloudy
10:48 PM78.8 °F73.4 °F83 %29.99 in10.0 miEast (80°)19.6 mph27.6 mphScattered Clouds
10:58 PM78.4 °F73.0 °F83 %29.96 in10.0 miEast (80°)19.6 mphScattered Clouds
11:53 PM78.8 °F73.4 °F83 %29.98 in10.0 miEast (90°)18.4 mphMostly Cloudy
11:58 PM78.3 °F73.0 °F84 %29.96 in10.0 miEast (80°)16.1 mphMostly Cloudy
Hourly data recorded from PGUA, located miles away from Tamuning, Guam







STORIES FROM OUR PARTNERS